www.pogodaiklimat.ru

Погода и климат >> Архив погоды >> Беларусь >> Барановичи


АРХИВ ПОГОДЫ в Барановичах

Время (UTC), дата Ветер
(напр.,м/с)
 
Видим.   Явления Облачность Т
(С)
Тd
(С)
f
(%)
Тe
(С)
Тes
(С)
Комфортность P
(гПа)
Po
(гПа)
Тmin
(С)
Tmax
(С)
R
(мм)
R24
(мм)
S
(см)
09 12.08 ЮВ 3 10 км 8/5 1000 м
[Cu med, cong Ci sp]
+26.8 +15.5 50 +30 +34 душно 1016.0 994.2
12 12.08 Ю 4 10 км 8/6 1000 м
[Cu med, cong Ci sp]
+28.5 +12.6 37 +30 +33 жарко 1014.7 993.1
15 12.08 Ю 3 10 км 8/4 1000 м
[Cu hum Ac trans]
+28.1 +13.0 39 +30 +31 жарко 1013.9 992.2
18 12.08 ЮВ 3 10 км 10/6 600 м
[Sc Ac trans Cc]
+25.2 +15.1 54 +28 +28 жарко 1012.9 991.0 +29.6
21 12.08 Ю 3 10 км 9/9 600 м
[Sc]
+22.7 +16.2 67 +27 +27 душно 1012.3 990.2
00 13.08 ЮВ 1 10 км гроза без осадков 10/10 600 м
[Cb calv]
+19.8 +18.3 91 +24 +24 комфорт 1011.3 989.0
03 13.08 С 2 8000 м дымка {гроза, ливн. осадки} 10/10 300 м
[Cb calv]
+19.1 +18.8 98 +22 +22 комфорт 1009.8 987.4
06 13.08 штиль 0 6000 м в посл. час ливневой дождь {гроза} 10/10 200 м
[St]
+20.1 +19.4 96 +23 +23 комфорт 1009.8 987.5 +19.0 2
09 13.08 З 3 10 км {ливн. осадки} 9/9 300 м
[Sc]
+22.1 +20.3 90 +28 +29 душно 1009.4 987.3
12 13.08 З 4 10 км {ливн. осадки} 10/10 300 м
[Cb calv]
+21.6 +18.8 84 +26 +26 душно 1011.6 989.4
15 13.08 СЗ 3 10 км 8/6 600 м
[Sc Ci fib]
+22.7 +17.2 71 +28 +29 душно 1012.1 990.0
18 13.08 штиль 0 10 км 8/0
[Cs]
+19.9 +16.1 79 +22 +22 комфорт 1013.7 991.3 +23.3 2
21 13.08 Ю 1 10 км 5/0
[Ci fib]
+17.8 +16.1 90 +19 +19 тепло 1014.4 991.8
00 14.08 штиль 0 6000 м дымка 4/0
[Ci fib]
+14.6 +14.5 99 +14 +14 по сезону 1014.8 991.9
03 14.08 штиль 0 3500 м дымка 6/0
[Ac trans Ci fib]
+13.1 +12.9 99 +13 +13 по сезону 1014.4 991.4
06 14.08 штиль 0 6000 м дымка 10/8 1000 м
[Sc Ac und]
+17.8 +15.9 89 +18 +18 тепло 1014.2 991.6 +13.1
09 14.08 штиль 0 6000 м слаб. ливневой дождь 10/10 300 м
[Cb calv]
+18.3 +17.2 93 +19 +19 по сезону 1013.1 990.6
12 14.08 З 1 6000 м слаб. ливневой дождь 10/10 300 м
[Cb calv]
+15.8 +15.6 99 +16 +16 холодно 1012.2 989.5
15 14.08 С 5
{13}
6000 м слаб. ливневой дождь 10/10 300 м
[Cb calv]
+13.7 +12.9 95 +12 +12 очень
холодно
1012.5 989.6
18 14.08 С 4 8000 м слаб. дождь 10/0 300 м
[As op]
+13.3 +12.6 96 +11 +11 очень
холодно
1013.2 990.3 +18.4 26
21 14.08 З 2 10 км {дождь} 9/9 300 м
[Sc]
+12.5 +12.2 98 +11 +11 холодно 1014.9 991.8
00 15.08 З 2 6000 м дымка {дождь} 8/8 300 м
[Sc]
+12.5 +12.3 99 +11 +11 прохладно 1015.6 992.5
03 15.08 СЗ 2 8000 м дымка 9/9 300 м
[Sc]
+12.2 +11.7 97 +11 +11 прохладно 1015.9 992.8
06 15.08 З 3 8000 м дымка 8/6 300 м
[Sc Ci fib]
+13.9 +12.1 89 +13 +14 прохладно 1016.9 993.9 +11.7 0.8
09 15.08 СЗ 3 10 км 8/6 1000 м
[Cu hum Ci]
+17.7 +9.3 58 +18 +21 по сезону 1016.8 994.2
12 15.08 СЗ 3 10 км 6/6 1000 м
[Cu hum]
+20.3 +9.3 49 +22 +26 комфорт 1015.8 993.4
15 15.08 С 2 10 км 8/6 1000 м
[Cu hum Ac trans]
+20.3 +7.4 43 +22 +23 комфорт 1015.5 993.1
18 15.08 штиль 0 10 км 10/0
[Ci fib]
+15.5 +9.8 69 +15 +15 прохладно 1016.1 993.3 +20.8
21 15.08 штиль 0 8000 м дымка 8/0
[Ci fib]
+11.3 +10.4 94 +11 +11 холодно 1017.0 993.8
00 16.08 штиль 0 6000 м дымка 10/0
[Ci fib]
+9.9 +9.7 99 +9 +9 прохладно 1017.2 993.9
03 16.08 штиль 0 5000 м дымка 10/0
[Ci fib]
+8.5 +8.4 99 +7 +7 очень
холодно
1017.1 993.6
06 16.08 штиль 0 10 км 6/0
[Ci fib]
+14.3 +11.1 81 +14 +19 по сезону 1017.0 994.1 +8.4
09 16.08 С 1 10 км 8/6 1000 м
[Cu med, cong Ci fib]
+19.6 +8.2 48 +22 +27 комфорт 1016.3 993.8
12 16.08 СЗ 2 10 км 8/6 1000 м
[Cu hum Ci fib]
+22.5 +8.7 41 +24 +28 комфорт 1015.4 993.2
15 16.08 СВ 2 10 км 8/0
[Ac trans]
+22.0 +10.1 47 +24 +25 комфорт 1015.2 993.0
18 16.08 СЗ 1 10 км 4/0
[Ac trans]
+17.3 +11.7 70 +18 +18 по сезону 1016.1 993.4 +23.3
21 16.08 штиль 0 6000 м дымка 3/0
[Ci fib]
+12.7 +12.0 96 +12 +12 прохладно 1017.3 994.2
00 17.08 штиль 0 4000 м дымка ясно +11.6 +11.4 99 +11 +11 по сезону 1017.2 994.0
03 17.08 штиль 0 4000 м дымка ясно +10.2 +10.0 99 +9 +9 холодно 1017.3 994.0
06 17.08 штиль 0 7000 м дымка 1/0
[Ci fib]
+16.4 +12.8 79 +16 +22 по сезону 1017.1 994.3 +9.5
09 17.08 СВ 3 10 км 5/5 600 м
[Cu hum]
+21.6 +10.4 49 +23 +28 комфорт 1016.4 994.1
12 17.08 СВ 2 10 км 5/5 1000 м
[Cu med, cong]
+23.7 +9.0 39 +24 +30 комфорт 1014.9 992.8
15 17.08 СВ 3 10 км 3/3 1000 м
[Cu hum]
+23.4 +9.1 40 +25 +27 комфорт 1014.2 992.1
18 17.08 штиль 0 10 км 3/0
[Ac trans]
+18.5 +10.6 60 +19 +19 по сезону 1014.6 992.1 +24.4
21 17.08 штиль 0 10 км ясно +13.5 +12.5 94 +13 +13 прохладно 1014.9 991.9
00 18.08 штиль 0 6000 м дымка ясно +11.6 +11.4 99 +11 +11 по сезону 1014.8 991.7
03 18.08 штиль 0 1200 м дымка 3/0
[Ac trans]
+10.6 +10.5 99 +10 +10 прохладно 1014.3 991.1
06 18.08 штиль 0 8000 м дымка ясно +18.8 +12.8 68 +20 +25 тепло 1013.6 991.1 +10.2
09 18.08 ЮЗ 2 10 км 4/0
[Ci fib]
+23.9 +10.8 44 +25 +36 комфорт 1012.9 990.9
12 18.08 ЮВ 2 10 км 4/4 1000 м
[Cu hum]
+25.7 +10.4 38 +27 +33 жарко 1012.2 990.4
15 18.08 Ю 3 10 км 3/3
[Cu hum]
+25.5 +12.0 43 +27 +29 жарко 1012.2 990.3
18 18.08 Ю 1 10 км ясно +22.0 +13.0 57 +25 +25 комфорт 1012.6 990.4 +26.7
21 18.08 Ю 2 10 км ясно +18.8 +13.8 73 +20 +20 тепло 1013.5 991.0
00 19.08 Ю 2 10 км ясно +16.8 +13.4 80 +17 +17 тепло 1013.7 991.0
03 19.08 Ю 2 10 км 3/0
[Ac trans]
+15.4 +13.2 87 +15 +15 по сезону 1014.1 991.3
06 19.08 Ю 4 10 км 6/0
[Ac trans Ci fib]
+19.0 +15.1 78 +20 +22 тепло 1014.7 992.2 +15.3

 

Местоположение метеостанции Барановичи (Брестская область, Беларусь): широта 53.13 долгота 25.97 высота над уровнем моря 193 м.

В архиве по умолчанию представлена погода в Барановичах за последнюю неделю. Архивные данные за месяц целиком и за предыдущие месяцы, начиная с января 2011 года, Вы можете получить, выбрав интересующий диапазон дат из раскрывающегося списка и нажав кнопку "Ввод!".


*Определитесь, кто Вы:
робот инопланетянин человек

Внимание! Время в таблицах - всемирное. Для получения местного времени необходимо прибавить поправку, которая равна 3 ч.

Смотрите также архив погоды в соседних городах и на ближайших метеорологических станциях:

Погода в Ганцевичах (Брестская область, Беларусь) (53 км)
Погода в Новогрудке (Гродненская область, Беларусь) (53 км)
Погода в Ивацевичах (Брестская область, Беларусь) (63 км)
Погода в Столбцах (Минская область, Беларусь) (64 км)
Погода в Лиде (Гродненская область, Беларусь) (96 км)
Погода в Волковыске (Гродненская область, Беларусь) (101 км)
Погода в Полесской (Брестская область, Беларусь) (105 км)
Погода в Слуцке (Минская область, Беларусь) (106 км)
Погода в Пинске (Брестская область, Беларусь) (113 км)
Погода в Воложине (Минская область, Беларусь) (113 км)

Пояснения к столбцам:

Ветер - указаны скорость ветра в м/с - средняя за 10 мин, порывы в срок и между сроками (в фигурных скобках) и направление, откуда дует ветер: С - северный, СВ - северо-восточный, В - восточный, ЮВ - юго-восточный, Ю - южный, ЮЗ - юго-западный, З - западный, СЗ - северо-западный.
Видимость - горизонтальная дальность видимости в метрах или километрах. При видимости от 1 до 10 км при отсутствии осадков обычно наблюдается дымка, при ухудшении видимости до 1 км и менее - туман. В сухую погоду видимость может ухудшаться дымом, пылью или мглою.
Явления - указаны атмосферные явления, наблюдавшиеся в срок или в последний час перед сроком; фигурными скобками обозначены явления, наблюдавшиеся между сроками (за 1-3 часа до срока); квадратными скобками обозначены град или гололедные отложения с указанием их диаметра в мм.
Облачность - указаны через наклонную черту общая и нижняя облачность в баллах и высота нижней границы облаков в метрах; квадратными скобками обозначены формы облаков: Ci - перистые, Cs - перисто-слоистые, Cc - перисто-кучевые, Ac - высококучевые, As - высокослоистые, Sc - слоисто-кучевые, Ns - слоисто-дождевые, Cu - кучевые, Cb - кучево-дождевые. Подробнее классификацию облаков см. в Атласе облаков (PDF).
T - Температура воздуха - температура, измеренная на высоте 2 м над землей.
Td - Температура точки росы - температура, при понижении до которой содержащийся в воздухе водяной пар достигнет насыщения.
f - Относительная влажность воздуха - влажноcть воздуха, измеренная на высоте 2 м над землей.
Te - Эффективная температура - температура, которую ощущает одетый по сезону человек в тени. Характеристика душности погоды. При расчете учитывается влияние влажности воздуха и скорости ветра на теплоощущения человека.
Tes - Эффективная температура на солнце - температура, которую ощущает человек, с поправкой на солнечный нагрев. Характеристика знойности погоды. Зависит от высоты солнца над горизонтом, облачности и скорости ветра. Ночью, в пасмурную погоду, а также при ветре 12 м/с и более поправка равна нулю.
P - Атмосферное давление - приведенное к уровню моря атмосферное давление.
Po - Атмосферное давление - измеренное на уровне метеостанции атмосферное давление.
Tmin - Минимальная температура - минимум температуры воздуха на высоте 2 м над землей.
Tmax - Максимальная температура - максимум температуры воздуха на высоте 2 м над землей.
R - Количество осадков - Количество выпавших осадков за период времени, мм. При наведении курсора мыши на число - период времени, за который выпало указанное количество осадков.
R24 - Количество осадков - Количество выпавших осадков за 24 часа, мм.
S - Снежный покров - Высота снежного покрова, см. При наведении курсора мыши на число - состояние снежного покрова и степень покрытия местности в баллах.